sat.trackr.live / text

‹ back to catalog

STARLINK-6177

NORAD 56880 · 2023-083E

PAYLOAD ACTIVE UNKNOWN

§ Identity

Operator
Country
US
Launch date
2023-06-12
Launch site
AFETR
Launch vehicle
Mass (kg)
RCS (m²)

Purposes: comms

External: N2YO · Heavens-Above · Gunter

§ Orbital elements

Epoch: 2026-09-20T04:02:38.094144Z

Period
94.27 min
Inclination
43.0043°
Eccentricity
0.0002089
Mean motion
15.27574908 rev/d
Perigee alt
481.6 km
Apogee alt
484.5 km
Semi-major
6,861.2 km
B*
-4.6459e-5
RAAN
66.8657°
Arg perigee
258.0535°
Mean anomaly
102.0082°
Rev number
18,137

§ Raw data

STARLINK-61771 56880U 23083E   26263.16849646 -.00001541  00000+0 -46459-4 0  99902 56880  43.0043  66.8657 0002089 258.0535 102.0082 15.27574908181379

JSON: /api/v1/satellites/56880 · /tle

For live sub-satellite position, see the globe view (requires WebGL).

§ Visibility from observer

Set your observer location to see the next 7 days of passes ≥ 10°. The values pass through the URL so the page stays shareable.

No JS? Fill the form by hand. The geolocation button needs JavaScript.